• In Russia
  • List of Countries
  • For 7 days
  • Water Temperature
  • Weather Map
  • Weather Widgets
  • user-avatar
    Login

    Hourly Weather Mitu

    Today, 23 January, Thursday

    Time Temperature Precipitation Wind Pressure Humidity
    00:00 +25°C° 0 mm 0 mps 736 mmHg 80%
    01:00 +24°C° 0 mm 0 mps 736 mmHg 81%
    02:00 +24°C° 0 mm 0 mps 736 mmHg 82%
    03:00 +24°C° 0 mm 0 mps 736 mmHg 84%
    04:00 +23°C° 0 mm 0 mps 736 mmHg 86%
    05:00 +24°C° 0 mm 0 mps 736 mmHg 85%
    06:00 +24°C° 0 mm 0 mps 736 mmHg 84%
    07:00 +25°C° 0 mm 0 mps 737 mmHg 83%
    08:00 +27°C° 0 mm 0 mps 737 mmHg 72%
    09:00 +32°C° 0 mm 1 mps 738 mmHg 61%
    10:00 +34°C° 0 mm 1 mps 738 mmHg 50%
    11:00 +35°C° 0 mm 1 mps 738 mmHg 47%
    12:00 +36°C° 0 mm 1 mps 737 mmHg 43%
    13:00 +37°C° 0 mm 1 mps 736 mmHg 40%
    14:00 +36°C° 0 mm 1 mps 735 mmHg 44%
    15:00 +36°C° 0 mm 1 mps 735 mmHg 48%
    16:00 +35°C° 0 mm 1 mps 734 mmHg 52%
    17:00 +31°C° 0 mm 0 mps 734 mmHg 57%
    18:00 +29°C° 0 mm 0 mps 735 mmHg 62%
    19:00 +27°C° 0 mm 0 mps 735 mmHg 67%
    20:00 +27°C° 0 mm 0 mps 736 mmHg 69%
    21:00 +26°C° 0 mm 0 mps 736 mmHg 70%
    22:00 +26°C° 0 mm 0 mps 736 mmHg 72%
    23:00 +25°C° 0 mm 0 mps 736 mmHg 74%

    Tomorrow, 24 January, Friday

    Time Temperature Precipitation Wind Pressure Humidity
    00:00 +25°C° 0 mm 0 mps 736 mmHg 76%
    01:00 +24°C° 0 mm 0 mps 736 mmHg 78%
    02:00 +24°C° 0 mm 0 mps 736 mmHg 79%
    03:00 +24°C° 0 mm 0 mps 736 mmHg 80%
    04:00 +23°C° 0 mm 0 mps 736 mmHg 81%
    05:00 +24°C° 0 mm 0 mps 736 mmHg 80%
    06:00 +24°C° 0 mm 0 mps 737 mmHg 79%
    07:00 +25°C° 0 mm 0 mps 737 mmHg 78%
    08:00 +28°C° 0 mm 0 mps 738 mmHg 67%
    09:00 +32°C° 0 mm 1 mps 738 mmHg 56%
    10:00 +35°C° 0 mm 1 mps 739 mmHg 45%
    11:00 +36°C° 0 mm 1 mps 738 mmHg 43%
    12:00 +38°C° 0 mm 2 mps 737 mmHg 40%
    13:00 +39°C° 0 mm 2 mps 736 mmHg 37%
    14:00 +38°C° 0 mm 2 mps 735 mmHg 41%
    15:00 +36°C° 0 mm 1 mps 735 mmHg 44%
    16:00 +35°C° 0 mm 1 mps 734 mmHg 48%
    17:00 +34°C° 0 mm 1 mps 735 mmHg 53%
    18:00 +32°C° 0 mm 1 mps 735 mmHg 58%
    19:00 +28°C° 0 mm 0 mps 735 mmHg 63%
    20:00 +27°C° 0 mm 0 mps 736 mmHg 66%
    21:00 +26°C° 0 mm 0 mps 736 mmHg 69%
    22:00 +26°C° 0 mm 0 mps 737 mmHg 71%
    23:00 +25°C° 0 mm 0 mps 737 mmHg 73%

    Day after tomorrow, 25 January, Saturday

    Time Temperature Precipitation Wind Pressure Humidity
    00:00 +25°C° 0 mm 0 mps 737 mmHg 75%
    01:00 +24°C° 0 mm 0 mps 736 mmHg 77%
    02:00 +24°C° 0 mm 0 mps 736 mmHg 79%
    03:00 +23°C° 0 mm 0 mps 736 mmHg 80%
    04:00 +23°C° 0 mm 0 mps 736 mmHg 81%
    05:00 +24°C° 0 mm 0 mps 737 mmHg 81%
    06:00 +24°C° 0 mm 0 mps 737 mmHg 80%
    07:00 +25°C° 0 mm 0 mps 738 mmHg 80%
    08:00 +29°C° 0 mm 1 mps 738 mmHg 68%
    09:00 +32°C° 0 mm 1 mps 739 mmHg 57%
    10:00 +35°C° 0 mm 2 mps 739 mmHg 45%
    11:00 +36°C° 0 mm 2 mps 738 mmHg 41%
    12:00 +37°C° 0 mm 2 mps 737 mmHg 38%
    13:00 +38°C° 0 mm 2 mps 736 mmHg 34%
    14:00 +38°C° 0 mm 2 mps 736 mmHg 35%
    15:00 +37°C° 0 mm 1 mps 735 mmHg 35%
    16:00 +36°C° 0 mm 1 mps 735 mmHg 36%
    17:00 +34°C° 0 mm 1 mps 735 mmHg 44%
    18:00 +32°C° 0 mm 1 mps 736 mmHg 51%
    19:00 +29°C° 0 mm 1 mps 736 mmHg 58%
    20:00 +27°C° 0 mm 0 mps 737 mmHg 59%
    21:00 +26°C° 0 mm 0 mps 737 mmHg 61%
    22:00 +26°C° 0 mm 0 mps 738 mmHg 62%
    23:00 +25°C° 0 mm 0 mps 737 mmHg 65%

    26 January, Sunday

    Time Temperature Precipitation Wind Pressure Humidity
    00:00 +25°C° 0 mm 0 mps 737 mmHg 69%
    01:00 +24°C° 0 mm 0 mps 736 mmHg 72%
    02:00 +24°C° 0 mm 0 mps 736 mmHg 74%
    03:00 +23°C° 0 mm 0 mps 736 mmHg 76%
    04:00 +23°C° 0 mm 0 mps 736 mmHg 78%
    05:00 +23°C° 0 mm 0 mps 737 mmHg 77%
    06:00 +24°C° 0 mm 0 mps 738 mmHg 76%
    07:00 +24°C° 0 mm 0 mps 738 mmHg 75%
    08:00 +29°C° 0 mm 1 mps 739 mmHg 64%
    09:00 +31°C° 0 mm 1 mps 739 mmHg 53%
    10:00 +35°C° 0 mm 2 mps 739 mmHg 43%
    11:00 +36°C° 0 mm 2 mps 738 mmHg 40%
    12:00 +37°C° 0 mm 2 mps 737 mmHg 37%
    13:00 +37°C° 0 mm 1 mps 737 mmHg 34%
    14:00 +37°C° 0 mm 1 mps 736 mmHg 35%
    15:00 +37°C° 0 mm 1 mps 735 mmHg 37%
    16:00 +36°C° 0 mm 1 mps 735 mmHg 38%
    17:00 +34°C° 0 mm 1 mps 735 mmHg 45%
    18:00 +30°C° 0 mm 0 mps 736 mmHg 51%
    19:00 +28°C° 0 mm 0 mps 736 mmHg 58%
    20:00 +27°C° 0 mm 0 mps 737 mmHg 61%
    21:00 +27°C° 0 mm 0 mps 737 mmHg 64%
    22:00 +28°C° 0 mm 1 mps 738 mmHg 67%
    23:00 +26°C° 0 mm 0 mps 737 mmHg 72%

    27 January, Monday

    Time Temperature Precipitation Wind Pressure Humidity
    00:00 +25°C° 0 mm 0 mps 737 mmHg 77%
    01:00 +24°C° 0 mm 0 mps 737 mmHg 82%
    02:00 +24°C° 0.2 mm 0 mps 737 mmHg 85%
    03:00 +23°C° 0.2 mm 0 mps 737 mmHg 88%
    04:00 +23°C° 0.2 mm 0 mps 737 mmHg 91%
    05:00 +23°C° 0 mm 0 mps 737 mmHg 90%
    06:00 +24°C° 0 mm 0 mps 738 mmHg 89%
    07:00 +24°C° 0 mm 0 mps 738 mmHg 88%
    08:00 +27°C° 0 mm 0 mps 739 mmHg 76%
    09:00 +31°C° 0 mm 1 mps 739 mmHg 63%
    10:00 +34°C° 0 mm 1 mps 739 mmHg 51%
    11:00 +35°C° 0 mm 1 mps 739 mmHg 46%
    12:00 +36°C° 0 mm 1 mps 738 mmHg 41%
    13:00 +37°C° 0 mm 1 mps 737 mmHg 37%
    14:00 +37°C° 0 mm 1 mps 736 mmHg 39%
    15:00 +34°C° 0 mm 0 mps 736 mmHg 42%
    16:00 +34°C° 0 mm 0 mps 735 mmHg 45%
    17:00 +31°C° 0 mm 0 mps 735 mmHg 51%
    18:00 +29°C° 0 mm 0 mps 736 mmHg 56%
    19:00 +27°C° 0 mm 0 mps 736 mmHg 62%
    20:00 +27°C° 0 mm 0 mps 736 mmHg 65%
    21:00 +26°C° 0 mm 0 mps 737 mmHg 68%
    22:00 +25°C° 0 mm 0 mps 737 mmHg 70%
    23:00 +25°C° 0 mm 0 mps 737 mmHg 73%

    28 January, Tuesday

    Time Temperature Precipitation Wind Pressure Humidity
    00:00 +24°C° 0 mm 0 mps 737 mmHg 75%
    01:00 +24°C° 0 mm 0 mps 736 mmHg 77%
    02:00 +24°C° 0 mm 0 mps 736 mmHg 77%
    03:00 +24°C° 0 mm 0 mps 736 mmHg 77%
    04:00 +24°C° 0 mm 0 mps 736 mmHg 77%
    05:00 +24°C° 0 mm 0 mps 737 mmHg 77%
    06:00 +25°C° 0 mm 0 mps 737 mmHg 78%
    07:00 +25°C° 0 mm 0 mps 738 mmHg 79%
    08:00 +27°C° 0.2 mm 0 mps 738 mmHg 70%
    09:00 +31°C° 0.2 mm 1 mps 739 mmHg 61%
    10:00 +33°C° 0.2 mm 1 mps 739 mmHg 52%
    11:00 +35°C° 0 mm 1 mps 738 mmHg 46%
    12:00 +36°C° 0 mm 1 mps 738 mmHg 40%
    13:00 +37°C° 0 mm 1 mps 737 mmHg 35%
    14:00 +37°C° 0 mm 1 mps 736 mmHg 37%
    15:00 +36°C° 0 mm 1 mps 735 mmHg 38%
    16:00 +36°C° 0 mm 1 mps 735 mmHg 40%
    17:00 +33°C° 0 mm 1 mps 735 mmHg 53%
    18:00 +30°C° 0 mm 1 mps 735 mmHg 66%
    19:00 +28°C° 0 mm 1 mps 736 mmHg 79%
    20:00 +27°C° 0 mm 1 mps 736 mmHg 83%
    21:00 +26°C° 0 mm 1 mps 736 mmHg 86%
    22:00 +24°C° 0 mm 0 mps 737 mmHg 90%
    23:00 +24°C° 0 mm 0 mps 737 mmHg 89%
    Show more